Barkley Regional Airport
KPAH : now visible

Airfield :











YOU CAN JOIN US ON...

 
LOGIN :

Register | Disclaimer

   EN    FR    IT 

 









Legend :    VFR   Marginal VFR   IFR   Intensive IFR   Very Intensive IFR
Visi :
Ceiling :
>= 8 km
>= 3000ft
5 to 8 km
1000 to 3000 ft
1500m to 5 km
500 to 1000 ft
800 to 1500m
200 to 500 ft
< 800m
< 200 ft
Symbols :   Thunderstorms  Fog  Heavy snow  Heavy precipitations  Wind > 20 kt






- Airport Elevation : 410 ft
- IATA code : PAH


KPAH - Barkley Regional

CURRENT METAR :
  • 170253Z 06003KT 10SM CLR 04/00 A3006 RMK AO2 SLP179 T00440000 51002

EXPIRED METARs :
  • 170153Z 00000KT 9SM CLR 04/M01 A3006 RMK AO2 SLP180 T00441006
  • 170053Z 00000KT 8SM CLR 04/M01 A3006 RMK AO2 SLP180 T00441006

TAF KPAH
Valid from the 17 at 00:00 until the 18 at 00:00 UTC


162320Z 1700/1724 VRB03KT P6SM SCT200
FM171100 14005KT P6SM OVC019
TEMPO 1711/1713 OVC008
FM171300 14006KT P6SM OVC012
FM172000 18010G18KT P6SM BKN013



MET'MAP, your aeronautical weather chart ! - Copyright ORBIFLY December 2007 - Disclaimer

ORBIFLY MET'MAP TEAM :

Programming & Development : Alexandra Zaïnal
Concept & original design : Baudouin d'Aumeries
Assistance for programming : Marc-Olivier Méhu
Technical & hardware support : Manuel Goepfert

Contact : metmap@orbifly.com




SOURCES & CREDITS :

   NOAA       Earth
Advisory